Showing default

PATHFINDER 1, 41787

Orbit data source: Space-Track

PATHFINDER 1, 41787 is a payload satellite owned by BlackSky Global (US) in SSO that was launched on Mon, 26 Sep 2016 UTC via a PSLV launch vehicle from the Sirharikota (SRI). Payload-class satellites include a variety of spacecraft equipped with specific instruments for various scientific and technological missions. These include communications satellites like Starlink; space stations such as the ISS; scientific satellites like the Hubble; Earth observation satellites from companies like Planet Labs, Umbra, and HawkEye 360; GPS; miniature CubeSats for education and research; and military/defense satellites.

Loading next visibility...
Identifier
41787, 2016-059E
Orbit
SSO
Country
Flag of USUS
Related business
Manufacturer
Spaceflight Ind
Mission
Operational Commercial Imaging
Bus & Motor
BSKY, Unknown motor
Mass
~44 kg wet, 44 kg dry
Launch date (UTC)
2016-09-26 (10 years ago)
Launch vehicle
PSLV
Launch site
Sirharikota (SRI)
Object type
Payload
Rocket body
Debris
Shape & HBR
Box, 1.0 m
Radar Cross Section
0.625 m², Medium (>0.1 m² and < 1m²)

Expand to show TLE details & history
Last TLE update: 3 days ago

TLE from 3 days ago
0 PATHFINDER 1
1 41787U 16059E   26170.93178020  .00000403  00000-0  78648-4 0  9998
2 41787  97.8166 170.0842 0028008 194.6747 165.3648 14.67665593520118
Epoch: 2026-06-19T22:21Z
TLE epoch observation values (Epoch: 2026-06-19T22:21:45.809Z)
Latitude
-0.00005°
Longitude
-73.51034°
Altitude
690.641 km
Speed
7.501 km/s
True Right ascension
11h 20m 20s
True Declination
0° 00' 00"
Sunlit
Object was in daylight at epoch
Visualization orbit readout
Latitude
Unknown
Longitude
Unknown
Altitude
Unknown
Speed
Unknown
Apparent Right ascension
Unknown
Apparent Declination
Unknown
Sunlit
N/A
Visualization observer readout
Local Sidereal Time
21:36:21
Azimuth
Unknown
Elevation
Unknown
Doppler factor
Unknown
Orbital elements
Apogee altitude
685.312 km
Perigee altitude
645.856 km
Semi-major axis
7,043.721 km
Eccentricity
0.0028
Inclination
97.8166°
RAAN
170.0842°
Arg. of periapsis
194.6747°
True anomaly
165.44562°
Mean anomaly
165.3648°
Eccentric anomaly
165.40524°
Mean motion
3.67147 °/min
Orbital period
98.05 mins
BSTAR
0.000078648
Loading maneuver chart data...
Computing Atmospheric mass density...
Loading historical data...
Loading historical data...
Loading historical data...
Loading historical data...
Loading historical data...
Loading historical data...
Loading historical data...

Documentation

Showing up to 5 results
|